When you browse on this site, cookies collect data to enhance your experience and personalize the content and advertising you see.
Visit our Privacy Policy to learn more. By continuing to use the site, you agree to this use of cookies and data.
  • In Sweden
  • List of Countries
  • For 7 days
  • Water Temperature
  • Weather Map
  • Weather Widgets
  • user-avatar
    Login

    Hourly Weather Airdrie

    Today, 21 August, Wednesday

    Time Temperature Precipitation Wind Pressure Humidity
    00:00 +11°C° 0 mm 1 mps 756 mmHg 93%
    01:00 +12°C° 0 mm 2 mps 756 mmHg 93%
    02:00 +12°C° 0 mm 2 mps 756 mmHg 93%
    03:00 +13°C° 0 mm 2 mps 756 mmHg 92%
    04:00 +13°C° 0 mm 2 mps 756 mmHg 93%
    05:00 +13°C° 0 mm 2 mps 756 mmHg 94%
    06:00 +13°C° 0 mm 2 mps 755 mmHg 94%
    07:00 +13°C° 0 mm 3 mps 755 mmHg 89%
    08:00 +14°C° 0 mm 4 mps 755 mmHg 84%
    09:00 +15°C° 0 mm 5 mps 755 mmHg 80%
    10:00 +15°C° 0.1 mm 6 mps 755 mmHg 76%
    11:00 +16°C° 0.1 mm 6 mps 754 mmHg 73%
    12:00 +16°C° 0.1 mm 7 mps 754 mmHg 69%
    13:00 +16°C° 0.4 mm 7 mps 754 mmHg 74%
    14:00 +15°C° 0.4 mm 7 mps 753 mmHg 78%
    15:00 +14°C° 0.4 mm 7 mps 753 mmHg 83%
    16:00 +14°C° 2 mm 7 mps 752 mmHg 86%
    17:00 +12°C° 2 mm 7 mps 752 mmHg 90%
    18:00 +13°C° 2 mm 6 mps 752 mmHg 94%
    19:00 +13°C° 0.7 mm 6 mps 751 mmHg 94%
    20:00 +13°C° 0.7 mm 6 mps 751 mmHg 94%
    21:00 +13°C° 0.7 mm 5 mps 751 mmHg 94%
    22:00 +12°C° 0.1 mm 5 mps 752 mmHg 94%
    23:00 +12°C° 0.1 mm 4 mps 752 mmHg 94%

    Tomorrow, 22 August, Thursday

    Time Temperature Precipitation Wind Pressure Humidity
    00:00 +11°C° 0.1 mm 4 mps 752 mmHg 94%
    01:00 +11°C° 0 mm 4 mps 751 mmHg 94%
    02:00 +10°C° 0 mm 3 mps 751 mmHg 93%
    03:00 +10°C° 0 mm 3 mps 751 mmHg 92%
    04:00 +10°C° 0 mm 3 mps 752 mmHg 92%
    05:00 +10°C° 0 mm 3 mps 752 mmHg 92%
    06:00 +10°C° 0 mm 3 mps 752 mmHg 92%
    07:00 +11°C° 0 mm 4 mps 752 mmHg 88%
    08:00 +12°C° 0 mm 5 mps 752 mmHg 84%
    09:00 +13°C° 0 mm 6 mps 753 mmHg 80%
    10:00 +14°C° 0 mm 6 mps 753 mmHg 76%
    11:00 +15°C° 0 mm 7 mps 752 mmHg 72%
    12:00 +16°C° 0 mm 7 mps 752 mmHg 69%
    13:00 +15°C° 0.2 mm 7 mps 752 mmHg 75%
    14:00 +14°C° 0.2 mm 6 mps 752 mmHg 82%
    15:00 +14°C° 0.2 mm 6 mps 752 mmHg 89%
    16:00 +14°C° 0.4 mm 7 mps 751 mmHg 90%
    17:00 +15°C° 0.4 mm 7 mps 751 mmHg 91%
    18:00 +15°C° 0.4 mm 8 mps 751 mmHg 92%
    19:00 +15°C° 0.4 mm 8 mps 751 mmHg 92%
    20:00 +15°C° 0.4 mm 7 mps 751 mmHg 92%
    21:00 +15°C° 0.4 mm 7 mps 752 mmHg 92%
    22:00 +15°C° 0.1 mm 7 mps 752 mmHg 92%
    23:00 +15°C° 0.1 mm 7 mps 752 mmHg 92%

    Day after tomorrow, 23 August, Friday

    Time Temperature Precipitation Wind Pressure Humidity
    00:00 +15°C° 0.1 mm 7 mps 752 mmHg 92%
    01:00 +14°C° 0.2 mm 7 mps 752 mmHg 92%
    02:00 +14°C° 0.2 mm 6 mps 752 mmHg 92%
    03:00 +14°C° 0.2 mm 6 mps 752 mmHg 92%
    04:00 +14°C° 0.1 mm 6 mps 753 mmHg 92%
    05:00 +14°C° 0.1 mm 6 mps 753 mmHg 93%
    06:00 +14°C° 0.1 mm 5 mps 753 mmHg 93%
    07:00 +14°C° 0 mm 5 mps 754 mmHg 91%
    08:00 +15°C° 0 mm 5 mps 754 mmHg 89%
    09:00 +15°C° 0 mm 5 mps 754 mmHg 87%
    10:00 +16°C° 0 mm 5 mps 755 mmHg 84%
    11:00 +16°C° 0 mm 5 mps 755 mmHg 80%
    12:00 +17°C° 0 mm 5 mps 755 mmHg 77%
    13:00 +19°C° 0 mm 5 mps 755 mmHg 76%
    14:00 +19°C° 0 mm 5 mps 755 mmHg 74%
    15:00 +20°C° 0 mm 5 mps 755 mmHg 73%
    16:00 +19°C° 0 mm 4 mps 755 mmHg 77%
    17:00 +19°C° 0 mm 4 mps 755 mmHg 80%
    18:00 +19°C° 0 mm 3 mps 755 mmHg 84%
    19:00 +18°C° 0 mm 3 mps 755 mmHg 87%
    20:00 +17°C° 0 mm 3 mps 755 mmHg 90%
    21:00 +16°C° 0 mm 2 mps 755 mmHg 93%
    22:00 +16°C° 0 mm 2 mps 755 mmHg 93%
    23:00 +15°C° 0 mm 2 mps 755 mmHg 93%

    24 August, Saturday

    Time Temperature Precipitation Wind Pressure Humidity
    00:00 +15°C° 0 mm 2 mps 755 mmHg 93%
    01:00 +15°C° 0 mm 2 mps 755 mmHg 94%
    02:00 +14°C° 0 mm 2 mps 754 mmHg 94%
    03:00 +14°C° 0 mm 1 mps 754 mmHg 94%
    04:00 +14°C° 0 mm 1 mps 754 mmHg 94%
    05:00 +14°C° 0 mm 1 mps 754 mmHg 94%
    06:00 +13°C° 0 mm 1 mps 754 mmHg 94%
    07:00 +15°C° 0 mm 2 mps 754 mmHg 88%
    08:00 +17°C° 0 mm 2 mps 754 mmHg 83%
    09:00 +18°C° 0 mm 2 mps 754 mmHg 77%
    10:00 +19°C° 0 mm 2 mps 754 mmHg 73%
    11:00 +21°C° 0 mm 3 mps 754 mmHg 69%
    12:00 +22°C° 0 mm 3 mps 754 mmHg 65%
    13:00 +22°C° 0 mm 3 mps 754 mmHg 64%
    14:00 +22°C° 0 mm 3 mps 753 mmHg 64%
    15:00 +24°C° 0 mm 3 mps 753 mmHg 63%
    16:00 +22°C° 0 mm 3 mps 753 mmHg 67%
    17:00 +21°C° 0 mm 2 mps 753 mmHg 71%
    18:00 +20°C° 0 mm 2 mps 753 mmHg 75%
    19:00 +19°C° 0 mm 2 mps 753 mmHg 76%
    20:00 +19°C° 0 mm 1 mps 753 mmHg 77%
    21:00 +18°C° 0 mm 1 mps 753 mmHg 78%
    22:00 +18°C° 0 mm 1 mps 752 mmHg 78%
    23:00 +18°C° 0 mm 1 mps 752 mmHg 78%

    25 August, Sunday

    Time Temperature Precipitation Wind Pressure Humidity
    00:00 +18°C° 0 mm 1 mps 752 mmHg 79%
    01:00 +16°C° 0 mm 1 mps 752 mmHg 80%
    02:00 +16°C° 0 mm 1 mps 752 mmHg 81%
    03:00 +16°C° 0 mm 1 mps 751 mmHg 81%
    04:00 +16°C° 0 mm 1 mps 751 mmHg 82%
    05:00 +16°C° 0 mm 1 mps 751 mmHg 83%
    06:00 +16°C° 0 mm 1 mps 751 mmHg 84%
    07:00 +18°C° 0 mm 1 mps 751 mmHg 81%
    08:00 +19°C° 0 mm 1 mps 751 mmHg 78%
    09:00 +20°C° 0 mm 2 mps 751 mmHg 76%
    10:00 +21°C° 0 mm 2 mps 751 mmHg 74%
    11:00 +21°C° 0 mm 2 mps 751 mmHg 72%
    12:00 +23°C° 0 mm 2 mps 750 mmHg 70%
    13:00 +24°C° 0 mm 2 mps 750 mmHg 67%
    14:00 +25°C° 0 mm 2 mps 750 mmHg 65%
    15:00 +25°C° 0 mm 2 mps 749 mmHg 63%
    16:00 +24°C° 0.3 mm 2 mps 749 mmHg 69%
    17:00 +24°C° 0.3 mm 2 mps 748 mmHg 75%
    18:00 +23°C° 0.3 mm 2 mps 748 mmHg 80%
    19:00 +20°C° 0.2 mm 2 mps 748 mmHg 84%
    20:00 +19°C° 0.2 mm 2 mps 747 mmHg 87%
    21:00 +17°C° 0.2 mm 2 mps 747 mmHg 91%
    22:00 +16°C° 0 mm 2 mps 747 mmHg 92%
    23:00 +16°C° 0 mm 2 mps 747 mmHg 93%

    26 August, Monday

    Time Temperature Precipitation Wind Pressure Humidity
    00:00 +15°C° 0 mm 2 mps 746 mmHg 94%
    01:00 +16°C° 0.1 mm 2 mps 746 mmHg 94%
    02:00 +16°C° 0.1 mm 3 mps 746 mmHg 94%
    03:00 +16°C° 0.1 mm 3 mps 745 mmHg 94%
    04:00 +14°C° 0.2 mm 3 mps 745 mmHg 93%
    05:00 +13°C° 0.2 mm 3 mps 745 mmHg 92%
    06:00 +13°C° 0.2 mm 4 mps 745 mmHg 90%
    07:00 +13°C° 0.2 mm 4 mps 746 mmHg 92%
    08:00 +13°C° 0.2 mm 5 mps 746 mmHg 93%
    09:00 +13°C° 0.2 mm 5 mps 746 mmHg 94%
    10:00 +13°C° 0 mm 6 mps 747 mmHg 86%
    11:00 +14°C° 0 mm 6 mps 747 mmHg 78%
    12:00 +15°C° 0 mm 7 mps 748 mmHg 70%
    13:00 +15°C° 0 mm 7 mps 748 mmHg 69%
    14:00 +15°C° 0 mm 7 mps 749 mmHg 67%
    15:00 +15°C° 0 mm 7 mps 749 mmHg 66%
    16:00 +14°C° 0 mm 6 mps 750 mmHg 68%
    17:00 +13°C° 0 mm 6 mps 750 mmHg 71%
    18:00 +13°C° 0 mm 5 mps 751 mmHg 73%
    19:00 +12°C° 0 mm 5 mps 751 mmHg 76%
    20:00 +11°C° 0 mm 4 mps 752 mmHg 80%
    21:00 +11°C° 0 mm 4 mps 752 mmHg 83%
    22:00 +10°C° 0 mm 4 mps 752 mmHg 84%
    23:00 +10°C° 0 mm 4 mps 753 mmHg 85%
    Show more